User: anonymous   Login
Location: Brno
(49.2000°N, 16.6330°E)
Time: 12:27:29
(UTC+02:00)
Language:

Cosmos 332 Rocket - Orbit

View from above orbital plane
View from above orbital plane
View from above satellite
View from above satellite

Ground track
Ground track

The orbit data is extracted from the following two-line orbital elements,

1 04370U 70028B   15149.86754726  .00000257  00000-0  60354-4 0  9992
2 04370 074.0406 078.1084 0016065 191.3325 168.7481 14.59556483902643
Epoch (UTC): 29 May 2015 20:49:16
Eccentricity: 0.0016065
inclination: 74.0406°
perigee height: 683 km
apogee height: 706 km
right ascension of ascending node: 78.1084°
argument of perigee: 191.3325°
revolutions per day: 14.59556483
mean anomaly at epoch: 168.7481°
orbit number at epoch: 90264

The dashed part of the orbit path shows where the satellite is in the earth's shadow,  

DLR